Hourly Data Report for October 02, 2015

All times are specified in Local Standard Time (LST). Add 1 hour to adjust for Daylight Saving Time where and when it is observed.

PENTICTON A
BRITISH COLUMBIA

49°27'45.000" N
119°36'08.000" W
344.40 m
1126146
71889
YYF

Download Data

Hourly Data (October 2015)
Hourly Data Report for October 2, 2015
Temp Definition
°C
Dew Point Temp Definition
°C
Rel Hum Definition
%
Wind Dir Definition
10's deg

Wind Spd Definition
km/h
Visibility Definition
km
Stn Press Definition
kPa
Hmdx Definition


Wind Chill Definition


Weather Definition


TIME
00:00 Legend Double Dagger 10.5 2.6 58 35 14 24.1 97.63     LegendNANA
01:00 Legend Double Dagger 9.3 4.5 72 1 14 24.1 97.66     Clear
02:00 Legend Double Dagger 8.7 3.2 68 1 12 24.1 97.65     LegendNANA
03:00 Legend Double Dagger 7.6 1.9 67 34 6 24.1 97.66     LegendNANA
04:00 Legend Double Dagger 5.9 2.2 77 36 2 24.1 97.69     Clear
05:00 Legend Double Dagger 5.1 1.8 79 2 6 24.1 97.70     LegendNANA
06:00 Legend Double Dagger 4.9 1.9 81 34 6 24.1 97.70     LegendNANA
07:00 Legend Double Dagger 7.3 3.2 75 3 5 24.1 97.65     Mostly Cloudy
08:00 Legend Double Dagger 11.5 4.8 63 36 2 24.1 97.61     LegendNANA
09:00 Legend Double Dagger 12.9 6.3 64 36 2 24.1 97.60     LegendNANA
10:00 Legend Double Dagger 13.4 7.5 67 17 5 24.1 97.53     Cloudy
11:00 Legend Double Dagger 14.2 8.0 66 35 14 24.1 97.49     LegendNANA
12:00 Legend Double Dagger 14.1 8.1 67 34 8 24.1 97.44     LegendNANA
13:00 Legend Double Dagger 14.4 9.3 71 1 14 24.1 97.46     Cloudy
14:00 Legend Double Dagger 14.1 9.4 73 36 12 24.1 97.40     LegendNANA
15:00 Legend Double Dagger 14.7 9.8 72 34 23 24.1 97.37     LegendNANA
16:00 Legend Double Dagger 15.3 10.1 71 36 26 24.1 97.34     Mostly Cloudy
17:00 Legend Double Dagger 14.1 10.0 76 36 26 24.1 97.38     LegendNANA
18:00 Legend Double Dagger 13.4 10.2 81 3 24 24.1 97.50     LegendNANA
19:00 Legend Double Dagger 11.9 9.1 83 2 18 24.1 97.60     Rain
20:00 Legend Double Dagger 11.4 10.2 92 35 8 24.1 97.62     Rain
21:00 Legend Double Dagger 11.1 10.2 94 35 8 24.1 97.63     Rain
22:00 Legend Double Dagger 11.2 10.3 94 2 12 24.1 97.63     Rain
23:00 Legend Double Dagger 11.3 7.8 79 3 17 24.1 97.66     LegendNANA

Notes on Data Quality.

Legend

  • E = Estimated
  • M = Missing
  • NA = Not Available
  • ‡ = Partner data that is not subject to review by the National Climate Archives
Date modified: